TimeEST,TemperatureF,Dew PointF,Humidity,Sea Level PressureIn,VisibilityMPH,Wind Direction,Wind SpeedMPH,Gust SpeedMPH,PrecipitationIn,Events,Conditions,WindDirDegrees,DateUTC
12:15 AM,10.8,8.8,92,30.04,10.0,NW,5.8,-,N/A,,Overcast,320,2013-03-04 05:15:00
12:35 AM,13.5,11.3,91,30.04,10.0,Calm,Calm,-,N/A,,Overcast,0,2013-03-04 05:35:00
12:55 AM,11.7,9.7,92,30.04,10.0,WSW,3.5,-,N/A,,Mostly Cloudy,250,2013-03-04 05:55:00
1:15 AM,9.1,7.2,92,30.04,4.0,West,3.5,-,N/A,,Scattered Clouds,270,2013-03-04 06:15:00
1:34 AM,9.7,8.2,94,30.05,10.0,West,5.8,-,N/A,,Clear,260,2013-03-04 06:34:00
1:55 AM,10.9,9.3,93,30.05,10.0,West,4.6,-,N/A,,Clear,260,2013-03-04 06:55:00
2:55 AM,4.1,1.4,89,30.05,10.0,Calm,Calm,-,N/A,,Scattered Clouds,0,2013-03-04 07:55:00
3:15 AM,1.0,-2.0,87,30.05,10.0,Calm,Calm,-,N/A,,Clear,0,2013-03-04 08:15:00
3:34 AM,0.3,-2.7,87,30.05,10.0,Calm,Calm,-,N/A,,Clear,0,2013-03-04 08:34:00
3:55 AM,-0.4,-4.2,84,30.04,10.0,Calm,Calm,-,N/A,,Clear,0,2013-03-04 08:55:00
4:15 AM,-2.4,-6.2,84,30.05,10.0,Calm,Calm,-,N/A,,Clear,0,2013-03-04 09:15:00
4:34 AM,-3.5,-7.6,82,30.05,10.0,Calm,Calm,-,N/A,,Clear,0,2013-03-04 09:34:00
4:55 AM,-4.2,-8.1,83,30.06,10.0,Calm,Calm,-,N/A,,Clear,0,2013-03-04 09:55:00
5:15 AM,-5.1,-9.2,82,30.07,10.0,Calm,Calm,-,N/A,,Clear,0,2013-03-04 10:15:00
5:35 AM,-6.5,-10.8,82,30.08,10.0,Calm,Calm,-,N/A,,Clear,0,2013-03-04 10:35:00
5:55 AM,-6.2,-10.8,80,30.08,10.0,Calm,Calm,-,N/A,,Clear,0,2013-03-04 10:55:00
6:15 AM,-6.7,-11.6,79,30.08,10.0,Calm,Calm,-,N/A,,Clear,0,2013-03-04 11:15:00
6:35 AM,-6.7,-11.4,80,30.07,10.0,Calm,Calm,-,N/A,,Clear,0,2013-03-04 11:35:00
6:55 AM,-7.6,-12.8,78,30.08,10.0,Calm,Calm,-,N/A,,Clear,0,2013-03-04 11:55:00
7:15 AM,-6.7,-11.2,81,30.08,10.0,Calm,Calm,-,N/A,,Clear,0,2013-03-04 12:15:00
7:35 AM,-6.7,-11.2,81,30.08,10.0,Calm,Calm,-,N/A,,Clear,0,2013-03-04 12:35:00
7:55 AM,-6.0,-10.3,82,30.09,10.0,Calm,Calm,-,N/A,,Clear,0,2013-03-04 12:55:00
8:15 AM,-4.2,-8.7,81,30.09,10.0,Calm,Calm,-,N/A,,Clear,0,2013-03-04 13:15:00
8:35 AM,-1.7,-5.8,83,30.09,10.0,Calm,Calm,-,N/A,,Clear,0,2013-03-04 13:35:00
8:55 AM,-1.5,-5.6,83,30.09,10.0,Calm,Calm,-,N/A,,Clear,0,2013-03-04 13:55:00
9:15 AM,3.7,0.3,86,30.09,10.0,Calm,Calm,-,N/A,,Clear,0,2013-03-04 14:15:00
9:35 AM,12.6,8.8,85,30.09,10.0,North,3.5,-,N/A,,Clear,350,2013-03-04 14:35:00
9:55 AM,16.2,10.2,77,30.09,10.0,North,10.4,-,N/A,,Clear,350,2013-03-04 14:55:00
10:14 AM,18.5,10.9,72,30.09,10.0,NNW,9.2,-,N/A,,Clear,330,2013-03-04 15:14:00
10:35 AM,19.2,10.8,70,30.09,10.0,NNW,4.6,-,N/A,,Clear,330,2013-03-04 15:35:00
10:55 AM,21.0,11.3,66,30.10,10.0,Calm,Calm,-,N/A,,Clear,0,2013-03-04 15:55:00
11:14 AM,22.1,11.5,64,30.10,10.0,NNW,4.6,-,N/A,,Clear,330,2013-03-04 16:14:00
11:35 AM,23.0,12.2,63,30.10,10.0,NW,5.8,-,N/A,,Clear,320,2013-03-04 16:35:00
11:55 AM,24.6,12.9,61,30.10,10.0,North,4.6,-,N/A,,Clear,350,2013-03-04 16:55:00
12:14 PM,26.1,13.8,60,30.09,10.0,WNW,4.6,-,N/A,,Clear,300,2013-03-04 17:14:00
12:35 PM,27.0,13.6,57,30.09,10.0,North,3.5,-,N/A,,Clear,360,2013-03-04 17:35:00
12:55 PM,28.4,13.6,54,30.08,10.0,Calm,Calm,-,N/A,,Clear,0,2013-03-04 17:55:00
1:14 PM,28.4,13.5,54,30.08,10.0,Calm,Calm,-,N/A,,Clear,0,2013-03-04 18:14:00
1:55 PM,28.8,13.5,53,30.07,10.0,North,5.8,-,N/A,,Clear,10,2013-03-04 18:55:00
2:14 PM,29.7,12.9,50,30.07,10.0,NNE,3.5,-,N/A,,Clear,30,2013-03-04 19:14:00
2:35 PM,30.4,12.2,47,30.06,10.0,Calm,Calm,-,N/A,,Clear,0,2013-03-04 19:35:00
2:55 PM,31.1,11.1,43,30.05,10.0,Calm,Calm,-,N/A,,Clear,0,2013-03-04 19:55:00
3:15 PM,31.1,12.4,46,30.05,10.0,Calm,Calm,-,N/A,,Clear,0,2013-03-04 20:15:00
3:35 PM,31.1,11.5,44,30.05,10.0,Calm,Calm,-,N/A,,Clear,0,2013-03-04 20:35:00
3:55 PM,31.6,10.8,42,30.05,10.0,Calm,Calm,-,N/A,,Clear,0,2013-03-04 20:55:00
4:35 PM,33.3,12.0,41,30.05,10.0,WNW,5.8,-,N/A,,Clear,290,2013-03-04 21:35:00
4:55 PM,33.3,11.5,41,30.06,10.0,WNW,3.5,-,N/A,,Clear,300,2013-03-04 21:55:00
5:15 PM,31.1,9.5,41,30.06,10.0,North,5.8,-,N/A,,Clear,350,2013-03-04 22:15:00
5:35 PM,30.6,10.6,43,30.06,10.0,North,4.6,-,N/A,,Clear,360,2013-03-04 22:35:00
5:54 PM,29.1,9.3,44,30.06,10.0,North,4.6,-,N/A,,Clear,350,2013-03-04 22:54:00
6:15 PM,28.4,10.8,48,30.06,10.0,North,4.6,-,N/A,,Clear,350,2013-03-04 23:15:00
6:35 PM,27.3,10.0,48,30.07,10.0,NNW,3.5,-,N/A,,Clear,340,2013-03-04 23:35:00
6:55 PM,28.2,10.2,47,30.07,10.0,North,3.5,-,N/A,,Clear,10,2013-03-04 23:55:00
7:15 PM,25.0,9.1,51,30.08,10.0,NNW,3.5,-,N/A,,Clear,340,2013-03-05 00:15:00
7:35 PM,22.5,9.3,57,30.08,10.0,Calm,Calm,-,N/A,,Clear,0,2013-03-05 00:35:00
7:55 PM,19.0,7.7,61,30.08,10.0,NNE,4.6,-,N/A,,Clear,20,2013-03-05 00:55:00
8:15 PM,16.9,7.2,66,30.08,10.0,NNE,4.6,-,N/A,,Clear,20,2013-03-05 01:15:00
8:35 PM,21.0,9.3,61,30.09,10.0,North,6.9,-,N/A,,Clear,10,2013-03-05 01:35:00
8:55 PM,19.0,7.5,61,30.09,10.0,North,3.5,-,N/A,,Clear,360,2013-03-05 01:55:00
9:15 PM,18.5,9.0,66,30.09,10.0,Calm,Calm,-,N/A,,Clear,0,2013-03-05 02:15:00
9:35 PM,17.4,7.3,65,30.09,10.0,Calm,Calm,-,N/A,,Clear,0,2013-03-05 02:35:00
9:55 PM,13.8,7.5,76,30.10,10.0,Calm,Calm,-,N/A,,Clear,0,2013-03-05 02:55:00
10:15 PM,16.7,8.4,70,30.10,10.0,Calm,Calm,-,N/A,,Clear,0,2013-03-05 03:15:00
10:35 PM,10.6,5.0,78,30.10,10.0,Calm,Calm,-,N/A,,Clear,0,2013-03-05 03:35:00
10:55 PM,12.2,6.3,77,30.10,10.0,Calm,Calm,-,N/A,,Clear,0,2013-03-05 03:55:00
11:15 PM,8.4,4.1,83,30.11,7.0,Calm,Calm,-,N/A,,Clear,0,2013-03-05 04:15:00
11:34 PM,8.4,4.5,84,30.11,5.0,Calm,Calm,-,N/A,,Clear,0,2013-03-05 04:34:00
11:55 PM,8.4,4.8,85,30.11,10.0,Calm,Calm,-,N/A,,Clear,0,2013-03-05 04:55:00